Location: *
(43.0409°N, 0.1694°E)
Time: 12:21:31
(UTC+00:00)

Cosmos 2227 Rocket - Pass Details

Date: 03 October 2023
Orbit: 839 x 843 km, 71.0° (Epoch: 01 December)

Event Time Altitude Azimuth Distance (km) Brightness Sun altitude
Rises 04:53:36 0° 202° (SSW) 3,384 5.1 -12.7°
Reaches altitude 10° 04:56:01 10° 202° (SSW) 2,454 4.3 -12.2°
Maximum altitude 05:01:40 88° 112° (ESE) 850 2.2 -11.2°
Drops below altitude 10° 05:07:21 10° 25° (NNE) 2,471 5.0 -10.2°
Sets 05:09:49 0° 25° (NNE) 3,410 5.8 -9.7°
